Trinity Center, CA

10:19 AM PDT on April 28, 2017 (GMT -0700)
Trinity Center

Weather History for KO86 - April, 2014

Change the Weather History Date:

Saturday, April 19, 2014

  Actual Average (KMHS) Record (KMHS)
Temperature  
Mean Temperature 52 °F -  
Max Temperature 69 °F 57 °F 83 °F (1950)
Min Temperature 35 °F 34 °F 17 °F (1927)
Degree Days  
Heating Degree Days 13    
Growing Degree Days 2 (Base 50)    
Moisture  
Dew Point 32 °F    
Average Humidity 50    
Maximum Humidity 81    
Minimum Humidity 21    
Precipitation  
Precipitation 0.00 in - - ()
Sea Level Pressure  
Sea Level Pressure 30.03 in    
Wind  
Wind Speed 5 mph (SW)    
Max Wind Speed 25 mph    
Max Gust Speed 32 mph    
Visibility 10 miles    
Events      
Averages and records for this station are not official NWS values.
T = Trace of Precipitation, MM = Missing Value Source: NWS Daily Summary

Daily Weather History Graph

Daily Weather History Graph

Search for Another Location

Airport or City:

Trip Planner

Search our weather history database for the weather conditions in past years. The results will help you decide how hot, cold, wet, or windy it might be!

Date:

Astronomy

Apr. 19, 2014 Rise Set
Actual Time 6:25 AM PDT 7:54 PM PDT
Civil Twilight 5:56 AM PDT 8:23 PM PDT
Nautical Twilight 5:21 AM PDT 8:58 PM PDT
Astronomical Twilight 4:45 AM PDT 9:35 PM PDT
Moon No Moon Rise 9:48 AM PDT (4/19)
Length of Visible Light 14h 27m
Length of Day
13h 29m
Waning Gibbous, 77% of the Moon is Illuminated
Apr 19
Waning Gibbous
Apr 22
Last Quarter
Apr 28
New
May 6
First Quarter
May 14
Full

Hourly Weather History & Observations

Time (PDT) Temp. Windchill Dew Point Humidity Pressure Visibility Wind Dir Wind Speed Gust Speed Precip Events Conditions
12:10 AM 48.2 °F - 33.8 °F 58% 29.94 in 10.0 mi West 3.5 mph - N/A   Clear
12:30 AM 48.2 °F - 32.0 °F 54% 29.95 in 10.0 mi West 3.5 mph - N/A   Clear
12:50 AM 46.4 °F 44.3 °F 32.0 °F 57% 29.95 in 10.0 mi WNW 4.6 mph - N/A   Clear
1:10 AM 44.6 °F 42.2 °F 32.0 °F 61% 29.95 in 10.0 mi West 4.6 mph - N/A   Clear
1:30 AM 44.6 °F 43.1 °F 32.0 °F 61% 29.95 in 10.0 mi West 3.5 mph - N/A   Clear
1:50 AM 44.6 °F 42.2 °F 32.0 °F 61% 29.95 in 10.0 mi West 4.6 mph - N/A   Clear
2:10 AM 44.6 °F 43.1 °F 32.0 °F 61% 29.95 in 10.0 mi West 3.5 mph - N/A   Clear
2:30 AM 42.8 °F - 32.0 °F 66% 29.95 in 10.0 mi Calm Calm - N/A   Clear
2:50 AM 41.0 °F - 32.0 °F 70% 29.95 in 10.0 mi Calm Calm - N/A   Clear
3:10 AM 39.2 °F - 32.0 °F 75% 29.95 in 10.0 mi Calm Calm - N/A   Clear
3:30 AM 39.2 °F - 32.0 °F 75% 29.96 in 10.0 mi Calm Calm - N/A   Clear
3:50 AM 39.2 °F 37.0 °F 32.0 °F 75% 29.96 in 10.0 mi WNW 3.5 mph - N/A   Clear
4:10 AM 39.2 °F - 30.2 °F 70% 29.97 in 10.0 mi Calm Calm - N/A   Clear
4:30 AM 39.2 °F 35.0 °F 32.0 °F 75% 29.98 in 10.0 mi West 5.8 mph - N/A   Clear
4:50 AM 37.4 °F 34.9 °F 32.0 °F 81% 29.98 in 10.0 mi West 3.5 mph - N/A   Clear
5:10 AM 37.4 °F 32.8 °F 32.0 °F 81% 29.97 in 10.0 mi West 5.8 mph - N/A   Clear
5:30 AM 37.4 °F 34.9 °F 30.2 °F 75% 29.98 in 10.0 mi WNW 3.5 mph - N/A   Clear
5:50 AM 37.4 °F 34.9 °F 30.2 °F 75% 29.98 in 10.0 mi West 3.5 mph - N/A   Clear
6:10 AM 35.6 °F 32.8 °F 30.2 °F 81% 29.98 in 10.0 mi West 3.5 mph - N/A   Clear
6:30 AM 35.6 °F - 30.2 °F 81% 29.98 in 10.0 mi Calm Calm - N/A   Clear
6:50 AM 35.6 °F - 30.2 °F 81% 29.99 in 10.0 mi Calm Calm - N/A   Clear
7:10 AM 37.4 °F - 32.0 °F 81% 29.99 in 10.0 mi Calm Calm - N/A   Clear
7:30 AM 39.2 °F - 32.0 °F 75% 30.01 in 10.0 mi Calm Calm - N/A   Clear
7:50 AM 41.0 °F - 32.0 °F 70% 30.01 in 10.0 mi Calm Calm - N/A   Clear
8:10 AM 41.0 °F - 32.0 °F 70% 30.01 in 10.0 mi Calm Calm - N/A   Clear
8:30 AM 44.6 °F - 32.0 °F 61% 30.01 in 10.0 mi Calm Calm - N/A   Clear
8:50 AM 46.4 °F - 32.0 °F 57% 30.00 in 10.0 mi Calm Calm - N/A   Clear
9:10 AM 48.2 °F - 32.0 °F 54% 30.01 in 10.0 mi ENE 3.5 mph - N/A   Clear
9:30 AM 50.0 °F - 32.0 °F 50% 30.00 in 10.0 mi Calm Calm - N/A   Clear
9:50 AM 50.0 °F - 30.2 °F 47% 30.00 in 10.0 mi Calm Calm - N/A   Clear
10:10 AM 53.6 °F - 30.2 °F 41% 30.01 in 10.0 mi Calm Calm - N/A   Clear
10:30 AM 55.4 °F - 30.2 °F 38% 30.01 in 10.0 mi NE 3.5 mph - N/A   Clear
10:50 AM 57.2 °F - 28.4 °F 33% 30.01 in 10.0 mi NE 5.8 mph - N/A   Clear
11:10 AM 59.0 °F - 28.4 °F 31% 30.01 in 10.0 mi North 6.9 mph - N/A   Clear
11:30 AM 62.6 °F - 28.4 °F 27% 30.02 in 10.0 mi North 6.9 mph - N/A   Clear
11:50 AM 64.4 °F - 24.8 °F 22% 30.01 in 10.0 mi ENE 4.6 mph - N/A   Clear
12:10 PM 66.2 °F - 24.8 °F 21% 30.00 in 10.0 mi SSE 19.6 mph 23.0 mph N/A   Clear
12:30 PM 66.2 °F - 28.4 °F 24% 30.00 in 10.0 mi South 19.6 mph 26.5 mph N/A   Clear
12:50 PM 68.0 °F - 30.2 °F 24% 30.00 in 10.0 mi SSE 20.7 mph 28.8 mph N/A   Clear
1:10 PM 68.0 °F - 30.2 °F 24% 29.99 in 10.0 mi SSE 25.3 mph 31.1 mph N/A   Clear
1:30 PM 68.0 °F - 26.6 °F 21% 29.99 in 10.0 mi South 21.9 mph 32.2 mph N/A   Clear
1:50 PM 68.0 °F - 26.6 °F 21% 30.00 in 10.0 mi South 21.9 mph 28.8 mph N/A   Clear
2:10 PM 68.0 °F - 28.4 °F 23% 30.00 in 10.0 mi South 18.4 mph 26.5 mph N/A   Clear
2:30 PM 69.8 °F - 28.4 °F 21% 30.01 in 10.0 mi SSE 15.0 mph 26.5 mph N/A   Clear
2:50 PM 69.8 °F - 32.0 °F 25% 30.00 in 10.0 mi SSE 16.1 mph 25.3 mph N/A   Clear
3:10 PM 69.8 °F - 32.0 °F 25% 30.01 in 10.0 mi South 15.0 mph 25.3 mph N/A   Clear
3:30 PM 69.8 °F - 35.6 °F 28% 30.01 in 10.0 mi South 19.6 mph 24.2 mph N/A   Clear
3:50 PM 68.0 °F - 35.6 °F 30% 30.01 in 10.0 mi South 11.5 mph 21.9 mph N/A   Clear
4:10 PM 68.0 °F - 35.6 °F 30% 30.01 in 10.0 mi South 13.8 mph 23.0 mph N/A   Clear
4:30 PM 68.0 °F - 35.6 °F 30% 30.01 in 10.0 mi SSE 15.0 mph 24.2 mph N/A   Clear
4:50 PM 68.0 °F - 35.6 °F 30% 30.02 in 10.0 mi SSE 13.8 mph 17.3 mph N/A   Clear
5:10 PM 68.0 °F - 35.6 °F 30% 30.03 in 10.0 mi South 12.7 mph 16.1 mph N/A   Partly Cloudy
5:30 PM 66.2 °F - 35.6 °F 32% 30.04 in 10.0 mi South 11.5 mph 17.3 mph N/A   Partly Cloudy
5:50 PM 66.2 °F - 37.4 °F 35% 30.04 in 10.0 mi South 8.1 mph - N/A   Clear
6:10 PM 64.4 °F - 39.2 °F 40% 30.06 in 10.0 mi SSE 9.2 mph - N/A   Clear
6:30 PM 64.4 °F - 37.4 °F 37% 30.06 in 10.0 mi South 5.8 mph 20.7 mph N/A   Clear
6:50 PM 64.4 °F - 39.2 °F 40% 30.07 in 10.0 mi South 4.6 mph - N/A   Clear
7:10 PM 62.6 °F - 39.2 °F 42% 30.08 in 10.0 mi South 5.8 mph - N/A   Clear
7:30 PM 60.8 °F - 39.2 °F 45% 30.09 in 10.0 mi SSE 5.8 mph - N/A   Clear
7:50 PM 59.0 °F - 37.4 °F 45% 30.10 in 10.0 mi South 5.8 mph - N/A   Clear
8:10 PM 57.2 °F - 39.2 °F 51% 30.11 in 10.0 mi Calm Calm - N/A   Clear
8:30 PM 55.4 °F - 39.2 °F 54% 30.12 in 10.0 mi Calm Calm - N/A   Clear
8:50 PM 53.6 °F - 37.4 °F 54% 30.13 in 10.0 mi West 4.6 mph - N/A   Clear
9:10 PM 53.6 °F - 33.8 °F 47% 30.15 in 10.0 mi West 4.6 mph - N/A   Clear
9:30 PM 50.0 °F - 33.8 °F 54% 30.16 in 10.0 mi WSW 3.5 mph - N/A   Clear
9:50 PM 50.0 °F - 32.0 °F 50% 30.17 in 10.0 mi West 5.8 mph - N/A   Clear
10:10 PM 50.0 °F - 32.0 °F 50% 30.17 in 10.0 mi West 4.6 mph - N/A   Clear
10:30 PM 48.2 °F - 32.0 °F 54% 30.17 in 10.0 mi West 6.9 mph - N/A   Clear
10:50 PM 46.4 °F 44.3 °F 32.0 °F 57% 30.18 in 10.0 mi West 4.6 mph - N/A   Clear
11:10 PM 46.4 °F 44.3 °F 32.0 °F 57% 30.18 in 10.0 mi West 4.6 mph - N/A   Clear
11:30 PM 44.6 °F 42.2 °F 32.0 °F 61% 30.18 in 10.0 mi West 4.6 mph - N/A   Clear
11:50 PM 44.6 °F 42.2 °F 32.0 °F 61% 30.19 in 10.0 mi West 4.6 mph - N/A   Clear